TimePST,TemperatureF,Dew PointF,Humidity,Sea Level PressureIn,VisibilityMPH,Wind Direction,Wind SpeedMPH,Gust SpeedMPH,PrecipitationIn,Events,Conditions,WindDirDegrees,DateUTC
12:15 AM,8.6,3.2,79,29.93,10.0,SSE,4.6,-,N/A,,Overcast,150,2013-12-06 08:15:00
12:35 AM,6.8,3.2,85,29.92,10.0,SSE,4.6,-,N/A,,Mostly Cloudy,150,2013-12-06 08:35:00
12:55 AM,3.2,1.4,92,29.92,10.0,SSE,5.8,-,N/A,,Scattered Clouds,160,2013-12-06 08:55:00
1:15 AM,5.0,3.2,92,29.92,10.0,Calm,Calm,-,N/A,,Mostly Cloudy,0,2013-12-06 09:15:00
1:35 AM,6.8,6.8,100,29.92,10.0,Calm,Calm,-,N/A,,Overcast,0,2013-12-06 09:35:00
1:55 AM,8.6,8.6,100,29.91,10.0,SE,4.6,-,N/A,,Overcast,140,2013-12-06 09:55:00
2:15 AM,8.6,5.0,85,29.92,10.0,SE,3.5,-,N/A,,Overcast,140,2013-12-06 10:15:00
2:35 AM,10.4,6.8,85,29.93,10.0,SE,4.6,-,N/A,,Overcast,140,2013-12-06 10:35:00
2:55 AM,14.0,8.6,79,29.92,10.0,SE,9.2,-,N/A,,Overcast,140,2013-12-06 10:55:00
3:15 AM,15.8,6.8,68,29.93,10.0,South,4.6,-,N/A,,Overcast,180,2013-12-06 11:15:00
3:35 AM,15.8,6.8,68,29.93,10.0,SSE,6.9,-,N/A,,Overcast,160,2013-12-06 11:35:00
3:55 AM,14.0,3.2,62,29.92,10.0,Calm,Calm,-,N/A,,Mostly Cloudy,0,2013-12-06 11:55:00
4:15 AM,10.4,1.4,67,29.92,10.0,SE,4.6,-,N/A,,Partly Cloudy,140,2013-12-06 12:15:00
4:35 AM,10.4,8.6,92,29.93,10.0,Calm,Calm,-,N/A,,Partly Cloudy,0,2013-12-06 12:35:00
4:55 AM,10.4,6.8,85,29.92,10.0,Calm,Calm,-,N/A,,Mostly Cloudy,0,2013-12-06 12:55:00
5:15 AM,12.2,8.6,85,29.92,10.0,SSE,5.8,-,N/A,,Overcast,160,2013-12-06 13:15:00
5:35 AM,15.8,8.6,73,29.92,10.0,South,6.9,-,N/A,,Overcast,170,2013-12-06 13:35:00
5:55 AM,15.8,8.6,73,29.91,10.0,SSE,8.1,-,N/A,,Overcast,160,2013-12-06 13:55:00
6:15 AM,15.8,6.8,68,29.92,10.0,South,4.6,-,N/A,,Overcast,190,2013-12-06 14:15:00
6:35 AM,17.6,8.6,68,29.92,10.0,South,4.6,-,N/A,,Overcast,180,2013-12-06 14:35:00
6:55 AM,15.8,8.6,73,29.92,10.0,SW,3.5,-,N/A,,Overcast,220,2013-12-06 14:55:00
7:15 AM,12.2,10.4,92,29.92,9.0,Calm,Calm,-,N/A,,Overcast,0,2013-12-06 15:15:00
7:35 AM,12.2,8.6,85,29.93,2.0,Calm,Calm,-,N/A,,Overcast,0,2013-12-06 15:35:00
7:55 AM,12.2,8.6,85,29.93,1.8,Calm,Calm,-,N/A,,Overcast,0,2013-12-06 15:55:00
8:15 AM,14.0,10.4,86,29.93,1.0,Calm,Calm,-,N/A,,Overcast,0,2013-12-06 16:15:00
8:35 AM,17.6,15.8,93,29.93,1.8,SSE,10.4,-,N/A,,Overcast,150,2013-12-06 16:35:00
8:55 AM,17.6,15.8,93,29.92,1.8,SE,11.5,-,N/A,,Overcast,130,2013-12-06 16:55:00
9:15 AM,17.6,14.0,86,29.92,5.0,SSE,13.8,-,N/A,,Overcast,150,2013-12-06 17:15:00
9:35 AM,19.4,12.2,74,29.92,9.0,SSE,12.7,-,N/A,,Overcast,150,2013-12-06 17:35:00
9:55 AM,19.4,12.2,74,29.92,10.0,SE,12.7,-,N/A,,Overcast,140,2013-12-06 17:55:00
10:15 AM,21.2,10.4,63,29.91,10.0,SSE,12.7,-,N/A,,Overcast,160,2013-12-06 18:15:00
10:35 AM,21.2,10.4,63,29.91,6.0,South,12.7,18.4,N/A,,Overcast,180,2013-12-06 18:35:00
10:55 AM,23.0,14.0,68,29.90,10.0,South,16.1,-,N/A,,Overcast,180,2013-12-06 18:55:00
11:15 AM,21.2,15.8,80,29.88,10.0,South,17.3,-,N/A,,Overcast,170,2013-12-06 19:15:00
11:35 AM,21.2,15.8,80,29.88,2.0,South,15.0,24.2,N/A,,Overcast,170,2013-12-06 19:35:00
11:55 AM,21.2,15.8,80,29.87,1.0,South,17.3,21.9,N/A,,Overcast,180,2013-12-06 19:55:00
12:15 PM,21.2,17.6,86,29.85,2.0,SSE,17.3,24.2,N/A,,Overcast,160,2013-12-06 20:15:00
12:35 PM,21.2,17.6,86,29.84,8.0,SSE,17.3,23.0,N/A,,Overcast,160,2013-12-06 20:35:00
12:55 PM,21.2,17.6,86,29.83,3.0,SSE,15.0,-,N/A,,Overcast,160,2013-12-06 20:55:00
1:15 PM,21.2,17.6,86,29.81,10.0,SSE,17.3,-,N/A,,Overcast,150,2013-12-06 21:15:00
1:35 PM,21.2,17.6,86,29.80,6.0,SSE,13.8,-,N/A,,Overcast,150,2013-12-06 21:35:00
1:55 PM,21.2,19.4,93,29.79,5.0,SSE,12.7,-,N/A,,Overcast,150,2013-12-06 21:55:00
2:15 PM,23.0,19.4,86,29.78,1.8,SSE,12.7,-,N/A,,Overcast,160,2013-12-06 22:15:00
2:35 PM,23.0,19.4,86,29.76,8.0,SSE,13.8,-,N/A,,Mostly Cloudy,150,2013-12-06 22:35:00
2:55 PM,23.0,19.4,86,29.76,10.0,SSE,12.7,-,N/A,,Overcast,150,2013-12-06 22:55:00
3:15 PM,23.0,17.6,80,29.76,5.0,South,13.8,17.3,N/A,,Overcast,180,2013-12-06 23:15:00
3:35 PM,23.0,19.4,86,29.75,1.2,South,10.4,-,N/A,,Overcast,180,2013-12-06 23:35:00
3:55 PM,21.2,19.4,93,29.74,1.0,South,10.4,-,N/A,,Overcast,180,2013-12-06 23:55:00
4:15 PM,21.2,19.4,93,29.73,10.0,SSE,10.4,-,N/A,,Overcast,160,2013-12-07 00:15:00
4:35 PM,21.2,19.4,93,29.73,1.5,SSE,12.7,-,N/A,,Overcast,160,2013-12-07 00:35:00
4:55 PM,21.2,19.4,93,29.74,1.2,South,10.4,-,N/A,,Overcast,170,2013-12-07 00:55:00
5:15 PM,21.2,19.4,93,29.73,1.0,South,12.7,17.3,N/A,,Overcast,170,2013-12-07 01:15:00
5:35 PM,21.2,19.4,93,29.73,1.2,South,6.9,-,N/A,,Overcast,190,2013-12-07 01:35:00
5:55 PM,21.2,19.4,93,29.72,1.5,SSE,4.6,-,N/A,,Overcast,150,2013-12-07 01:55:00
6:15 PM,21.2,19.4,93,29.74,2.5,Calm,Calm,-,N/A,,Mostly Cloudy,0,2013-12-07 02:15:00
6:35 PM,19.4,19.4,100,29.72,1.8,SSE,8.1,-,N/A,,Overcast,160,2013-12-07 02:35:00
6:55 PM,19.4,19.4,100,29.72,3.0,SSE,10.4,-,N/A,,Overcast,150,2013-12-07 02:55:00
7:15 PM,19.4,19.4,100,29.72,5.0,SE,10.4,-,N/A,,Overcast,140,2013-12-07 03:15:00
7:35 PM,19.4,19.4,100,29.72,2.5,SSE,8.1,-,N/A,,Overcast,150,2013-12-07 03:35:00
7:55 PM,19.4,19.4,100,29.71,3.0,SE,15.0,18.4,N/A,,Overcast,140,2013-12-07 03:55:00
8:15 PM,19.4,19.4,100,29.71,3.0,SE,13.8,-,N/A,,Overcast,140,2013-12-07 04:15:00
8:35 PM,19.4,19.4,100,29.71,3.0,SE,13.8,-,N/A,,Overcast,140,2013-12-07 04:35:00
8:55 PM,19.4,17.6,93,29.71,3.0,SSE,11.5,-,N/A,,Overcast,150,2013-12-07 04:55:00
9:15 PM,19.4,17.6,93,29.70,3.0,SSE,15.0,-,N/A,,Overcast,150,2013-12-07 05:15:00
9:35 PM,19.4,19.4,100,29.70,3.0,SSE,13.8,-,N/A,,Overcast,160,2013-12-07 05:35:00
9:55 PM,19.4,17.6,93,29.69,7.0,SE,15.0,-,N/A,,Overcast,140,2013-12-07 05:55:00
10:15 PM,19.4,17.6,93,29.69,10.0,SSE,15.0,19.6,N/A,,Overcast,150,2013-12-07 06:15:00
10:35 PM,19.4,17.6,93,29.69,10.0,SSE,11.5,-,N/A,,Overcast,150,2013-12-07 06:35:00
10:55 PM,19.4,17.6,93,29.69,10.0,SSE,15.0,20.7,N/A,,Overcast,150,2013-12-07 06:55:00
11:15 PM,19.4,17.6,93,29.68,10.0,SSE,15.0,-,N/A,,Overcast,150,2013-12-07 07:15:00
11:35 PM,19.4,17.6,93,29.67,10.0,SSE,13.8,-,N/A,,Overcast,150,2013-12-07 07:35:00
11:55 PM,19.4,17.6,93,29.67,10.0,SSE,12.7,-,N/A,,Overcast,150,2013-12-07 07:55:00